Weather History for KHLC - May, 2013

Change the Weather History Date:

Wednesday, May 29, 2013

  Actual Average Record
Temperature  
Mean Temperature 71 °F 67 °F  
Max Temperature 86 °F 80 °F 105 °F (1913)
Min Temperature 55 °F 54 °F 34 °F (1984)
Cooling Degree Days 4    
Growing Degree Days 20 (Base 50)    
Moisture  
Dew Point 60 °F    
Average Humidity 75    
Maximum Humidity 100    
Minimum Humidity 38    
Precipitation  
Precipitation 0.75 in 0.13 in 2.05 in (2008)
Month to date precipitation 2.09 3.52  
Year to date precipitation 4.31 8.24  
Sea Level Pressure  
Sea Level Pressure 29.50 in    
Wind  
Wind Speed 14 mph (South)    
Max Wind Speed 33 mph    
Max Gust Speed 48 mph    
Visibility 8 miles    
Events Rain , Thunderstorm    
T = Trace of Precipitation, MM = Missing Value Source: NWS Daily Summary

Daily Weather History Graph

Daily Weather History Graph

Search for Another Location

Airport or City:

Trip Planner

Search our weather history database for the weather conditions in past years. The results will help you decide how hot, cold, wet, or windy it might be!

Date:

Astronomy

May. 29, 2013 Rise Set
Actual Time 6:15 AM CDT 8:58 PM CDT
Civil Twilight 5:44 AM CDT 9:29 PM CDT
Nautical Twilight 5:04 AM CDT 10:09 PM CDT
Astronomical Twilight 4:20 AM CDT 10:54 PM CDT
Moon 12:22 AM CDT 11:15 AM CDT
Length of Visible Light 15h 45m
Length of Day
14h 42m
Waning Gibbous, 73% of the Moon is Illuminated
May 29
Waning Gibbous
May 31
Last Quarter
Jun 8
New
Jun 16
First Quarter
Jun 23
Full

Hourly Weather History & Observations

Time (CDT) Temp. Heat Index Dew Point Humidity Pressure Visibility Wind Dir Wind Speed Gust Speed Precip Events Conditions
12:53 AM 72.0 °F - 45.0 °F 38% 29.49 in 10.0 mi South 8.1 mph - N/A   Clear
1:53 AM 73.0 °F - 46.9 °F 39% 29.48 in 10.0 mi South 17.3 mph 33.4 mph N/A   Clear
2:53 AM 71.1 °F - 53.1 °F 53% 29.48 in 10.0 mi South 15.0 mph 25.3 mph N/A   Clear
3:53 AM 72.0 °F - 62.1 °F 71% 29.49 in 10.0 mi South 15.0 mph 24.2 mph N/A   Overcast
4:53 AM 70.0 °F - 63.0 °F 78% 29.51 in 10.0 mi SSE 11.5 mph - N/A   Mostly Cloudy
5:25 AM 69.8 °F - 62.6 °F 78% 29.60 in 10.0 mi SSE 6.9 mph - N/A   Mostly Cloudy
5:53 AM 70.0 °F - 64.0 °F 81% 29.53 in 10.0 mi SSE 12.7 mph 19.6 mph N/A   Overcast
6:32 AM 69.8 °F - 64.4 °F 83% 29.60 in 10.0 mi South 9.2 mph - N/A   Overcast
6:53 AM 70.0 °F - 64.0 °F 81% 29.52 in 10.0 mi South 12.7 mph - N/A   Overcast
7:53 AM 71.1 °F - 64.0 °F 78% 29.50 in 10.0 mi South 8.1 mph 18.4 mph N/A   Partly Cloudy
8:53 AM 75.0 °F - 62.1 °F 64% 29.50 in 10.0 mi South 9.2 mph - N/A   Clear
9:53 AM 77.0 °F - 63.0 °F 62% 29.49 in 10.0 mi South 18.4 mph 25.3 mph N/A   Clear
10:53 AM 81.0 °F 82.2 °F 63.0 °F 54% 29.46 in 10.0 mi South 23.0 mph 34.5 mph N/A   Clear
11:53 AM 82.0 °F 83.8 °F 64.9 °F 56% 29.46 in 10.0 mi South 16.1 mph 33.4 mph N/A   Scattered Clouds
12:53 PM 84.9 °F 86.1 °F 64.0 °F 49% 29.44 in 10.0 mi South 23.0 mph 33.4 mph N/A   Mostly Cloudy
1:53 PM 82.9 °F 84.0 °F 63.0 °F 51% 29.43 in 10.0 mi SSE 20.7 mph 33.4 mph N/A   Mostly Cloudy
2:53 PM 82.9 °F 84.0 °F 63.0 °F 51% 29.40 in 10.0 mi SSE 20.7 mph 35.7 mph N/A   Partly Cloudy
3:53 PM 79.0 °F - 64.9 °F 62% 29.39 in 10.0 mi South 26.5 mph 44.9 mph N/A   Partly Cloudy
4:53 PM 75.0 °F - 64.9 °F 71% 29.37 in 10.0 mi SSE 23.0 mph 41.4 mph N/A   Clear
5:53 PM 75.9 °F - 63.0 °F 64% 29.36 in 10.0 mi South 23.0 mph 34.5 mph N/A   Clear
6:53 PM 73.9 °F - 63.0 °F 68% 29.33 in 10.0 mi SSE 23.0 mph 36.8 mph N/A   Clear
7:06 PM 75.2 °F - 64.4 °F 69% 29.40 in 10.0 mi SSE 21.9 mph 35.7 mph N/A Thunderstorm Clear
7:41 PM 75.2 °F - 64.4 °F 69% 29.43 in 10.0 mi SSE 19.6 mph 42.6 mph N/A   Partly Cloudy
7:53 PM 66.0 °F - 57.9 °F 75% 29.52 in 5.0 mi West 32.2 mph 48.3 mph 0.00 in Rain , Thunderstorm Light Rain
7:58 PM 57.2 °F - 53.6 °F 88% 29.56 in 2.5 mi West 33.4 mph 48.3 mph 0.02 in Rain , Thunderstorm Rain
8:08 PM 57.2 °F - 55.4 °F 94% 29.56 in 1.2 mi WNW 21.9 mph 35.7 mph 0.17 in Rain , Thunderstorm Heavy Rain
8:27 PM 55.4 °F - 53.6 °F 94% 29.60 in 1.8 mi NW 15.0 mph 25.3 mph 0.44 in Rain , Thunderstorm Heavy Thunderstorms and Rain
8:37 PM 55.4 °F - 55.4 °F 100% 29.61 in 2.0 mi NNW 9.2 mph - 0.51 in Rain , Thunderstorm Heavy Thunderstorms and Rain
8:53 PM 57.0 °F - 55.9 °F 96% 29.56 in 2.0 mi North 11.5 mph - 0.63 in Rain , Thunderstorm Heavy Thunderstorms and Rain
9:14 PM 57.2 °F - 57.2 °F 100% 29.58 in 4.0 mi NNE 16.1 mph - 0.07 in Rain Light Rain
9:44 PM 59.0 °F - 57.2 °F 94% 29.60 in 9.0 mi NE 5.8 mph - 0.08 in Rain , Thunderstorm Light Rain
9:53 PM 59.0 °F - 57.0 °F 93% 29.56 in 10.0 mi NNE 4.6 mph - 0.09 in Rain Light Rain
10:53 PM 59.0 °F - 57.9 °F 96% 29.49 in 10.0 mi East 11.5 mph - 0.03 in   Clear
11:25 PM 59.0 °F - 57.2 °F 94% 29.60 in 10.0 mi Calm Calm - N/A   Partly Cloudy
11:44 PM 59.0 °F - 57.2 °F 94% 29.60 in 10.0 mi North 6.9 mph - N/A   Mostly Cloudy
11:53 PM 59.0 °F - 57.9 °F 96% 29.53 in 10.0 mi North 6.9 mph - N/A   Mostly Cloudy